Columbia Owens, SC

8:28 PM EST on November 11, 2019 (GMT -0500)
Columbia Owens Downtown

Weather History for KCUB - September, 2019

Change the Weather History Date:

Wednesday, September 25, 2019

  Actual Average Record
Temperature  
Mean Temperature 83 °F 73 °F  
Max Temperature 96 °F 83 °F 96 °F (2019)
Min Temperature 69 °F 63 °F 54 °F (2012)
Degree Days  
Heating Degree Days 0 0  
Month to date heating degree days 0 0  
Since 1 July heating degree days 0 0  
Cooling Degree Days 18 8  
Month to date cooling degree days 410 292  
Year to date cooling degree days 2533 2110  
Growing Degree Days 33 (Base 50)    
Moisture  
Dew Point 66 °F    
Average Humidity 61    
Maximum Humidity 84    
Minimum Humidity 33    
Precipitation  
Precipitation 0.00 in 0.12 in 2.50 in (2011)
Month to date precipitation 0.79 3.42  
Year to date precipitation 23.97 35.27  
Sea Level Pressure  
Sea Level Pressure 29.87 in    
Wind  
Wind Speed 2 mph (West)    
Max Wind Speed 10 mph    
Max Gust Speed 15 mph    
Visibility 10 miles    
Events      
T = Trace of Precipitation, MM = Missing Value Source: NWS Daily Summary

Daily Weather History Graph

Daily Weather History Graph

Search for Another Location

Airport or City:

Astronomy

Sep. 25, 2019 Rise Set
Actual Time 7:14 AM EDT 7:16 PM EDT
Civil Twilight 6:49 AM EDT 7:41 PM EDT
Nautical Twilight 6:20 AM EDT 8:10 PM EDT
Astronomical Twilight 5:50 AM EDT 8:40 PM EDT
Moon 3:20 AM EDT (9/25) 5:35 PM EDT (9/25)
Length of Visible Light 12h 52m
Length of Day
12h 02m
Waning Crescent, 14% of the Moon is Illuminated
Sep 25
Waning Crescent
Sep 28
New
Oct 5
First Quarter
Oct 13
Full
Oct 21
Last Quarter

Hourly Weather History & Observations

Time (EDT) Temp. Heat Index Dew Point Humidity Pressure Visibility Wind Dir Wind Speed Gust Speed Precip Events Conditions
12:53 AM 73.0 °F - 63.0 °F 71% 29.86 in 10.0 mi Calm Calm - N/A   Clear
1:53 AM 72.0 °F - 63.0 °F 73% 29.86 in 10.0 mi Calm Calm - N/A   Clear
2:53 AM 71.1 °F - 64.0 °F 78% 29.85 in 10.0 mi Calm Calm - N/A   Partly Cloudy
3:53 AM 70.0 °F - 64.0 °F 81% 29.84 in 10.0 mi Calm Calm - N/A   Clear
4:53 AM 70.0 °F - 64.0 °F 81% 29.86 in 10.0 mi Calm Calm - N/A   Clear
5:53 AM 70.0 °F - 64.0 °F 81% 29.87 in 10.0 mi Calm Calm - N/A   Scattered Clouds
6:53 AM 70.0 °F - 64.0 °F 81% 29.89 in 10.0 mi ENE 3.5 mph - N/A   Scattered Clouds
7:53 AM 70.0 °F - 64.0 °F 81% 29.91 in 10.0 mi Calm Calm - N/A   Clear
9:53 AM 80.1 °F 82.3 °F 66.9 °F 64% 29.92 in 7.0 mi Calm Calm - N/A   Clear
10:53 AM 82.9 °F 85.8 °F 68.0 °F 60% 29.93 in 10.0 mi ESE 4.6 mph - N/A   Clear
11:53 AM 87.1 °F 89.9 °F 66.9 °F 51% 29.92 in 10.0 mi SSW 5.8 mph - N/A   Partly Cloudy
12:53 PM 90.0 °F 92.8 °F 66.9 °F 46% 29.89 in 10.0 mi Variable 5.8 mph - N/A   Clear
1:53 PM 93.0 °F 95.9 °F 66.0 °F 41% 29.86 in 10.0 mi North - - N/A   Clear
2:53 PM 93.0 °F 94.6 °F 64.0 °F 38% 29.83 in 10.0 mi Calm Calm - N/A   Scattered Clouds
3:53 PM 96.1 °F 96.9 °F 62.1 °F 32% 29.81 in 10.0 mi WNW 6.9 mph - N/A   Partly Cloudy
4:53 PM 93.0 °F 94.6 °F 64.0 °F 38% 29.81 in 10.0 mi NW 4.6 mph - N/A   Clear
5:53 PM 93.9 °F 95.2 °F 63.0 °F 36% 29.82 in 10.0 mi NW 5.8 mph - N/A   Clear
6:53 PM 90.0 °F 92.8 °F 66.9 °F 46% 29.83 in 10.0 mi SSW 5.8 mph - N/A   Clear
7:53 PM 87.1 °F 90.6 °F 68.0 °F 53% 29.85 in 10.0 mi Calm Calm - N/A   Partly Cloudy
8:53 PM 84.9 °F 88.8 °F 69.1 °F 59% 29.87 in 10.0 mi Calm Calm - N/A   Clear
9:53 PM 82.0 °F 85.5 °F 69.1 °F 65% 29.89 in 10.0 mi Variable 3.5 mph - N/A   Clear
10:53 PM 80.1 °F 82.9 °F 69.1 °F 69% 29.90 in 10.0 mi Variable 3.5 mph - N/A   Clear
11:53 PM 78.1 °F - 69.1 °F 74% 29.90 in 10.0 mi Calm Calm - N/A   Clear